Starlink 31592

operational
NORAD ID: 59467 Int'l Des: 2024-068 Owner: SPXS Country: US Constellation: starlink
LEOCIRCULAR

About Starlink 31592

Description loading...

Live Position

Loading 3D Globe...

Upcoming Passes

Altitude History

Altitude vs Time

uPlot chart will show altitude changes over time

Two-Line Element Set

1 59467U 24068N 25258.47997863 .00000706 00000-0 35162-4 0 9990
2 59467 43.0025 304.2756 0001104 262.1315 97.9411 15.27580779 81720
Epoch: Sep 15, 2025 • Age: 15 hours

Current Status

Altitude 492.3 km
Velocity 7.62 km/s
Sub-Earth Point -34.67°S, 132.84°E
Launch Date Apr 10, 2024
Age 1.4 years
Type internet

Technical Details

Classification Payload
Mass 730.00 kg
Dry Mass 700.00 kg
Total Mass 730.00 kg
Length 0.30 m
Diameter 4.10 m
Span 29.00 m
Shape Box + pan
Manufacturer SPXS
Bus Type Starlink V2M
Phase Status In Orbit
Owner/State SPXS/US

Large Constellations

Loading constellations...